Вернуться в каталог

CZ-6A DEB

АктивенPO
NORAD 56653·DEBRIS·🇨🇳 China

Запущен Nov 11, 2022 с Taiyuan Satellite Launch Center

Loading…

Ближайшие Пролёты (ближайшие 24 часа)

TLE

СвежийSource: Space-Track

Эпоха: Sep 13, 2026, 11:25 UTC

1 56653U 22151AGD 26256.47608925  .00003811  00000-0  54643-3 0  9996
2 56653  98.6010 348.3269 0102787 271.0844  87.8587 14.73629169181187

Отслеживайте CZ-6A DEB в реальном времени с AllMySat

Download on the App Store